Location: Unspecified
(47.1121°N, 116.3927°W)
Time: 14:47:45
(UTC-07:00)

ISS - Pass Details

Date: 21 May 2019
Orbit: 407 x 418 km, 51.6° (Epoch: 20 June)

Event Time Altitude Azimuth Distance (km) Brightness Sun altitude
Rises 23:44:10 0° 286° (WNW) 2,360 0.5 -21.3°
Reaches altitude 10° 23:46:21 10° 295° (WNW) 1,499 -0.5 -21.4°
Maximum altitude 23:49:31 37° 5° (N) 671 -2.2 -21.5°
Enters shadow 23:52:06 14° 70° (ENE) 1,286 -1.2 -21.6°
